GOOYSBRF

Guest
Details From GOOY - Dakar Leopold Sedar Senghor Intl
To SBRF - Recife Intl
Flight Number -
Tags Generated
Created
Modified
Stats Distance 1,721 nm / 3,187 km
Max Altitude 0 ft / 0 m
Waypoints 3
Social Downloads 1
Likes 0
Share VATSIM

Download

Looking for another format? Having issues loading an existing format? Contact us
Advertisement - Login to hide

Notes

Generated

Route

GOOY REC60 SBRF

ID Type Via Altitude Latitude Longitude Leg Dist Tot Dist Heading (true) Name
O GOOY APT - 0 ft / 0 m 14.73171˚ -17.50427˚ - 0 nm - -
REC60 FIX - 0 ft / 0 m -8.00462˚ -34.82387˚ 1711 nm 1711 nm 218° / 217° -
O SBRF APT - 0 ft / 0 m -8.12516˚ -34.92862˚ 9 nm 1720 nm 221° / 221° -

Altitude Profile

Advertisement - Login to hide

Weather


0- 5 10 15 20 25 30 35+ Temperature / ° C

Clouds and Precipitation
Forecast for 2018-05-27 12:00 UTC. Updated an hour ago

Ground ~20,000 ft ~40,000 ft Winds

GOOY

Details ICAO GOOY (DKR)
Name Dakar Leopold Sedar Senghor Intl
Region Senegal
Timezone Africa/Dakar (UTC+0.0)
Stats Elevation 85 ft / 26 m (AMSL)
Location 14.739711° -17.490226°
Runways 2
Magnetic Variation 7.296° W

METAR

GOOY 270900Z 36006KT CAVOK 22/19 Q1014

Decode

TAF

TAF GOOY 270530Z 2706/2812 34010KT CAVOK= TAF GBYD 270530Z 2706/2812 33008KT CAVOK

Decode

Departure Runways

ID Width Length Bearing (true) Bearing (mag) Surface Threshold Offset Overrun Length
03 98 ft / 30 m 4,921 ft / 1,500 m 22.31° 29.61° Asphalt 0 ft / 0 m 98 ft / 30 m
18 148 ft / 45 m 11,511 ft / 3,509 m 172.57° 179.87° Asphalt 525 ft / 160 m 197 ft / 60 m
21 98 ft / 30 m 4,921 ft / 1,500 m 202.31° 209.61° Asphalt 0 ft / 0 m 1,590 ft / 485 m
36 148 ft / 45 m 11,511 ft / 3,509 m 352.57° 359.87° Asphalt 0 ft / 0 m 197 ft / 60 m

SBRF

Details ICAO SBRF (REC)
Name Recife Intl
Region Brazil
Timezone America/Recife (UTC-3.0)
Stats Elevation 33 ft / 10 m (AMSL)
Location -8.127896° -34.922981°
Runways 2
Magnetic Variation 22.074° W

METAR

SBRF 271000Z 20004KT 9999 FEW015 SCT025 24/21 Q1014

Decode

TAF

TAF SBRF 270300Z 2706/2806 15008KT 8000 SCT022 TN24/2706Z TX29/2717Z PROB30 TEMPO 2707/2709 5000 SHRA SCT010 BKN017 RMK PEU

Decode

Destination Runways

ID Width Length Bearing (true) Bearing (mag) Surface Threshold Offset Overrun Length
01 98 ft / 30 m 4,979 ft / 1,518 m 304.20° 326.27° Asphalt 300 ft / 91 m 0 ft / 0 m
18 148 ft / 45 m 9,915 ft / 3,022 m 161.91° 183.98° Asphalt 1,225 ft / 373 m 0 ft / 0 m
19 98 ft / 30 m 4,979 ft / 1,518 m 124.20° 146.27° Asphalt 300 ft / 91 m 0 ft / 0 m
36 148 ft / 45 m 9,915 ft / 3,022 m 341.91° 3.98° Asphalt 0 ft / 0 m 350 ft / 107 m

Approach Navaids

Runway Type Ident Frequency Range Bearing (true) Bearing (mag) Slope Elevation
18 Localiser IRF 110.30 MHz 18 nm / 33 km 161.91° 183.98° - 33 ft / 10 m (AMSL)
18 Glidescope IRF 110.30 MHz 10 nm / 19 km 161.91° 183.98° 3.00° 33 ft / 10 m (AMSL)

Popular Alternatives